Regional Weather Roundup
Issued by NWS

Home | Current Version | Previous Version | Graphics & Text | Print | Product List | Glossary On
Versions: 1 2 3 4 5 6 7 8 9 10 11 12 13 14 15 16 17 18 19 20 21 22 23 24 25 26 27 28 29 30 31 32 33 34 35 36 37 38 39 40 41 42 43 44 45 46 47 48 49 50
000
ASUS45 KBOU 211607
RWRCO

WEATHER ROUNDUP FOR COLORADO
NATIONAL WEATHER SERVICE DENVER/BOULDER CO
1000 AM MDT THU AUG 21 2014

NOTE: "FAIR" INDICATES FEW OR NO CLOUDS BELOW 12000 FEET WITH NO
SIGNIFICANT WEATHER AND/OR OBSTRUCTIONS TO VISIBILITY.

COZ001>005-013-030-031-211700-
...NORTHWEST COLORADO...

CITY           SKY/WX    TMP DP  RH WIND       PRES   REMARKS
CRAIG          SUNNY     65  52  62 NE6       30.22S
HAYDEN         SUNNY     61  48  63 SE5       30.24S
MEEKER         SUNNY     65  48  54 CALM      30.23S
MOUNT WERNER   NOT AVBL
STEAMBOAT SPGS SUNNY     59  49  69 CALM      30.25F
WALDEN         MOSUNNY   59  45  58 S8        30.30S
$$

COZ006>008-011-211700-
...WEST CENTRAL VALLEYS...

CITY           SKY/WX    TMP DP  RH WIND       PRES   REMARKS
GRAND JUNCTION MOSUNNY   69  48  47 SE6       30.16S
MONTROSE       SUNNY     69  46  43 CALM      30.23F
EAGLE          MOSUNNY   59  52  77 CALM      30.28F
RIFLE          SUNNY     66  51  58 VRB3      30.20F
DELTA          SUNNY     71  47  41 SE6       30.20F HAZE
NUCLA          SUNNY     64  45  48 CALM      30.26S
$$

COZ017>023-064>068-211700-
...SOUTHWEST COLORADO...

CITY           SKY/WX    TMP DP  RH WIND       PRES   REMARKS
DURANGO        SUNNY     68  40  35 CALM      30.25F
CORTEZ         SUNNY     71  43  36 VRB5      30.22S
PAGOSA SPRINGS SUNNY     63  38  39 CALM      30.32S
TELLURIDE      SUNNY     61  37  41 CALM      30.41S
WOLF CREEK PAS NOT AVBL
$$

COZ009-010-012-014-032>034-037-058>063-211700-
...CENTRAL COLORADO...

CITY           SKY/WX    TMP DP  RH WIND       PRES   REMARKS
ASPEN          MOSUNNY   61  41  47 VRB3      30.30F
BUENA VISTA    MOSUNNY   64  40  41 SE8       30.31R
COPPER MTN     MOSUNNY   50  36  57 SW8       30.56R
BERTHOUD PASS  FAIR      39  37  93 NW21      30.57S
COTTONWOOD PAS MOSUNNY   61  32  33 W10G18    30.43R
GUNNISON       MOSUNNY   57  39  51 CALM      30.36F
KREMMLING      SUNNY     59  45  58 CALM      30.31S
LEADVILLE      MOSUNNY   53  36  52 N9G17     30.41F
MONARCH PASS   PTSUNNY   41  36  81 W17       30.66R
SALIDA         MOSUNNY   65  40  40 CALM      30.36S
SUNLIGHT       SUNNY     52  45  76 CALM      30.50S
WILKERSON PASS NOT AVBL
$$

COZ069>075-211700-
...SAN LUIS VALLEY/SANGRE DE CRISTO MOUNTAINS...

CITY           SKY/WX    TMP DP  RH WIND       PRES   REMARKS
ALAMOSA        SUNNY     67  41  38 VRB7      30.31R
LA VETA PASS   NOT AVBL
SAGUACHE       PTSUNNY   64  39  39 NW12      30.33S
$$

COZ035-036-038>040-211700-
...NORTHERN COLORADO FRONT RANGE...

CITY           SKY/WX    TMP DP  RH WIND       PRES   REMARKS
DENVER INTL AP PTSUNNY   73  56  54 SW8       30.11R
DMNS CITY PARK   N/A     74  53  47 SW3       30.11S
AURORA         MOSUNNY   73  53  49 SW7       30.13S
FRONT RANGE AP NOT AVBL
ERIE MUNI ARPT PTSUNNY   74  50  43 NE3       30.09S
BOULDER MUN AP PTSUNNY   73  50  43 NE3       30.10S
CENTENNIAL     PTSUNNY   71  49  45 S5        30.14S
BROOMFIELD     PTSUNNY   73  52  46 VRB5      30.13S
FORT COLLINS   MOSUNNY   75  48  38 SE5       30.09S
LONGMONT       MOSUNNY   78  50  38 CALM      30.10S
$$

COZ041-046-047-076>085-087-088-211700-
...PIKES PEAK/PALMER DIVIDE AND SOUTHERN FOOTHILLS...

CITY           SKY/WX    TMP DP  RH WIND       PRES   REMARKS
COLO. SPRINGS  MOSUNNY   75  48  38 VRB7      30.18S
A. F. ACADEMY  MOSUNNY   74  48  39 S8        30.19S
ELLICOTT       MOSUNNY   75  47  36 CALM      30.16R
FALCON         MOSUNNY   73  49  43 SW6       30.23R
FORT CARSON    MOSUNNY   77  52  41 S12       30.15R
LIMON          SUNNY     78  47  33 N8        30.12R
MONUMENT HILL  MOSUNNY   72  39  30 W5        30.21S
TRINIDAD       SUNNY     74  52  46 NW6       30.16S
$$

COZ042>045-048>051-090-091-211700-
...NORTHEAST COLORADO...

CITY           SKY/WX    TMP DP  RH WIND       PRES   REMARKS
GREELEY ARPT   MOSUNNY   75  52  43 NW5       30.08R
AKRON          SUNNY     77  53  43 NW13G25   30.06S
BURLINGTON     MOSUNNY   82  50  32 N14       30.03R
WRAY             N/A     83  48  29 NW17G23   30.00R
STERLING       SUNNY     82  52  34 NW20      30.01S
HOLYOKE        NOT AVBL
FORT MORGAN    SUNNY     80  48  32 NW5       30.06S
$$

COZ086-089-092>099-211700-
...SOUTHEAST COLORADO...

CITY           SKY/WX    TMP DP  RH WIND       PRES   REMARKS
PUEBLO         SUNNY     79  50  36 CALM      30.08S
LA JUNTA       NOT AVBL
LAMAR          NOT AVBL
SPRINGFIELD    NOT AVBL
$$



USA.gov is the U.S. government's official web portal to all federal, state and local government web resources and services.